Location: Bacea
(45.9500°N, 22.6667°E)
Time: 01:57:06
(UTC+00:00)

IRS-1C Rocket - Pass Details

Date: 16 October 2021
Orbit: 801 x 805 km, 98.9° (Epoch: 02 December)

Event Time Altitude Azimuth Distance (km) Brightness Sun altitude
Exits shadow 17:08:16 - 153° (SSE) 3,254 7.0 -15.8°
Reaches altitude 10° 17:10:29 10° 151° (SSE) 2,372 6.2 -16.2°
Maximum altitude 17:15:39 63° 71° (ENE) 895 4.0 -17.1°
Drops below altitude 10° 17:20:52 10° 351° (N) 2,391 6.7 -18.0°
Sets 17:23:14 0° 349° (N) 3,327 7.5 -18.4°
